Showing default

YAM-15, 68997

Orbit data source: Space-Track

YAM-15, 68997 is an American payload satellite in SSO that was launched on Sun, 03 May 2026 UTC via an FALCON 9 launch vehicle from the Air Force Western Test Range (AFWTR). Payload-class satellites include a variety of spacecraft equipped with specific instruments for various scientific and technological missions. These include communications satellites like Starlink; space stations such as the ISS; scientific satellites like the Hubble; Earth observation satellites from companies like Planet Labs, Umbra, and HawkEye 360; GPS; miniature CubeSats for education and research; and military/defense satellites.

Loading next visibility...
Identifier
68997, 2026-100T
Orbit
SSO
Country
Flag of USUS
Related business
Manufacturer
Airbus/Toulouse
Mission
Operational spacecraft
Bus & Motor
ARROW, Unknown motor
Mass
~150 kg wet, ~140 kg dry
Launch date (UTC)
2026-05-03 (2 months ago)
Launch vehicle
FALCON 9
Launch site
Air Force Western Test Range (AFWTR)
Object type
Payload
Rocket body
Debris
Shape & HBR
Unknown shape, 14.5 m
Radar Cross Section
Large (>1 m²)

Expand to show TLE details & history
Last TLE update: 18 hours ago

TLE from 18 hours ago
0 YAM-15
1 68997U 26100T   26175.17987260  .00001258  00000-0  13405-3 0  9991
2 68997  97.7358  72.5161 0010711  74.0396 286.2001 14.90594324  7749
Epoch: 2026-06-24T04:19Z
TLE epoch observation values (Epoch: 2026-06-24T04:19:00.992Z)
Latitude
-0.00008°
Longitude
95.42119°
Altitude
597.045 km
Speed
7.562 km/s
True Right ascension
04h 50m 03s
True Declination
0° 00' 00"
Sunlit
Object was in daylight at epoch
Visualization orbit readout
Latitude
Unknown
Longitude
Unknown
Altitude
Unknown
Speed
Unknown
Apparent Right ascension
Unknown
Apparent Declination
Unknown
Sunlit
N/A
Visualization observer readout
Local Sidereal Time
09:08:19
Azimuth
Unknown
Elevation
Unknown
Doppler factor
Unknown
Orbital elements
Apogee altitude
600.568 km
Perigee altitude
585.634 km
Semi-major axis
6,971.238 km
Eccentricity
0.00107
Inclination
97.7358°
RAAN
72.5161°
Arg. of periapsis
74.0396°
True anomaly
286.08219°
Mean anomaly
286.2001°
Eccentric anomaly
286.14115°
Mean motion
3.72888 °/min
Orbital period
96.54 mins
BSTAR
0.00013405
Loading maneuver chart data...
Computing Atmospheric mass density...
Loading historical data...
Loading historical data...
Loading historical data...
Loading historical data...
Loading historical data...
Loading historical data...
Loading historical data...

Documentation

Showing up to 5 results
|